Regional Weather Roundup
Issued by NWS

Home | Current Version | Previous Version | Text Only | Print | Product List | Glossary On
Versions: 1 2 3 4 5 6 7 8 9 10 11 12 13 14 15 16 17 18 19 20 21 22 23 24 25 26 27 28 29 30 31 32 33 34 35 36 37 38 39 40 41 42 43 44 45 46 47 48 49 50
355
ASUS45 KBOU 091807
RWRCO

WEATHER ROUNDUP FOR COLORADO
NATIONAL WEATHER SERVICE DENVER/BOULDER CO
1100 AM MST TUE FEB 09 2016

NOTE: "FAIR" INDICATES FEW OR NO CLOUDS BELOW 12000 FEET WITH NO
SIGNIFICANT WEATHER AND/OR OBSTRUCTIONS TO VISIBILITY.

COZ001>005-013-030-031-091900-
...NORTHWEST COLORADO...

CITY           SKY/WX    TMP DP  RH WIND       PRES   REMARKS
CRAIG          CLOUDY    13  10  88 CALM      30.56S
HAYDEN         CLOUDY    23  14  68 SE8       30.53S WCI  14
MEEKER         CLOUDY    23  16  74 CALM      30.53S
MOUNT WERNER   NOT AVBL
STEAMBOAT SPGS CLOUDY    17  14  88 CALM      30.54S
WALDEN         SUNNY     18   9  68 NW3       30.50F
$$

COZ006>008-011-091900-
...WEST CENTRAL VALLEYS...

CITY           SKY/WX    TMP DP  RH WIND       PRES   REMARKS
GRAND JUNCTION SUNNY     33  23  66 SE7       30.55F WCI  27
MONTROSE       SUNNY     34  18  52 CALM      30.57F
EAGLE          SUNNY     36  19  51 CALM      30.60F
RIFLE          SUNNY     27  17  66 CALM      30.56F
DELTA          SUNNY     34  22  62 N3        30.57F
NUCLA          SUNNY     34  21  60 CALM      30.56S
$$

COZ017>023-064>068-091900-
...SOUTHWEST COLORADO...

CITY           SKY/WX    TMP DP  RH WIND       PRES   REMARKS
DURANGO        SUNNY     29  19  66 NE6       30.46R WCI  23
CORTEZ         SUNNY     45  18  34 VRB3      30.45F
PAGOSA SPRINGS SUNNY     38  15  38 CALM      30.45F
TELLURIDE      CLOUDY    36   7  30 CALM      30.53R
WOLF CREEK PAS SUNNY     32  -2  23 NE15      30.57R WCI  22
$$

COZ009-010-012-014-032>034-037-058>063-091900-
...CENTRAL COLORADO...

CITY           SKY/WX    TMP DP  RH WIND       PRES   REMARKS
ASPEN          SUNNY     33  15  47 N3        30.49F
BUENA VISTA    SUNNY     45   9  22 N24G31    30.40F
COPPER MTN     SUNNY     34   3  27 W14G21    30.54S WCI  24
BERTHOUD PASS  FAIR      16   5  62 NW24G31   30.49R WCI  -3
COTTONWOOD PAS SUNNY     43   0  16 E3        30.45S
GUNNISON       CLOUDY     1  -8  66 CALM      30.62S
KREMMLING      CLOUDY   N/A N/A N/A CALM      30.61S HAZE
LEADVILLE      SUNNY     38   1  21 N13G24    30.47F
MONARCH PASS   CLOUDY    27   5  39 W10G16    30.62S WCI  17
SALIDA         NOT AVBL
SUNLIGHT       SUNNY     30  16  55 NW7         N/A  WCI  23
WILKERSON PASS SUNNY     34   1  25 N7        30.49S WCI  28
$$

COZ069>075-091900-
...SAN LUIS VALLEY/SANGRE DE CRISTO MOUNTAINS...

CITY           SKY/WX    TMP DP  RH WIND       PRES   REMARKS
ALAMOSA        SUNNY     35  17  47 S5        30.46F WCI  31
LA VETA PASS   SUNNY     39   9  28 SW3       30.47S
SAGUACHE       SUNNY     41  16  36 S7        30.46F
$$

COZ035-036-038>040-091900-
...NORTHERN COLORADO FRONT RANGE...

CITY           SKY/WX    TMP DP  RH WIND       PRES   REMARKS
DENVER INTL AP MOSUNNY   47  25  42 SE6       30.32F
DMNS CITY PARK   N/A     52  15  23 E5G13     30.32S
AURORA         MOSUNNY   48  22  36 SE7       30.34S
FRONT RANGE AP SUNNY     39  25  56 S9        30.34S
ERIE MUNI ARPT SUNNY     44  21  40 CALM      30.32F
BOULDER MUN AP SUNNY     46  19  34 CALM      30.32S
CENTENNIAL     SUNNY     45  19  35 S7        30.33F
BROOMFIELD     SUNNY     50  19  29 S8        30.33S
FORT COLLINS   SUNNY     37  25  60 CALM      30.33S
LONGMONT       SUNNY     44  25  47 CALM      30.34F
$$

COZ041-046-047-076>085-087-088-091900-
...PIKES PEAK/PALMER DIVIDE AND SOUTHERN FOOTHILLS...

CITY           SKY/WX    TMP DP  RH WIND       PRES   REMARKS
COLO. SPRINGS  MOSUNNY   43  20  39 E8        30.37R
A. F. ACADEMY  SUNNY     43  17  35 S8        30.35R
SCHRIEVER AFB  NOT AVBL
ELLICOTT       NOT AVBL
FALCON         NOT AVBL
FORT CARSON    SUNNY     42  24  48 N3        30.35R
LIMON          SUNNY     36  23  59 W10       30.34R
MONUMENT HILL  SUNNY     39  14  35 CALM      30.38S
TRINIDAD       SUNNY     54  12  18 NW5       30.35F
$$

COZ042>045-048>051-090-091-091900-
...NORTHEAST COLORADO...

CITY           SKY/WX    TMP DP  RH WIND       PRES   REMARKS
GREELEY ARPT   SUNNY     34  25  69 CALM      30.34S
AKRON          SUNNY     42  28  57 NW21      30.29R
BURLINGTON     SUNNY     41  26  55 NW13      30.30R
WRAY           CLOUDY    45  30  55 NW16      30.28S
STERLING       MOSUNNY   45  30  57 NW15      30.28S
HOLYOKE        CLOUDY    46  30  53 NW17      30.27R
FORT MORGAN    SUNNY     40  27  59 W7        30.32S
$$

COZ086-089-092>099-091900-
...SOUTHEAST COLORADO...

CITY           SKY/WX    TMP DP  RH WIND       PRES   REMARKS
PUEBLO         SUNNY     48  25  40 NE6       30.35R
LA JUNTA       SUNNY     48  26  42 W10       30.35S
LAMAR          SUNNY     50  27  40 W21G26    30.31F
SPRINGFIELD      N/A     57  21  24 NW21G29   30.31F
$$




USA.gov is the U.S. government's official web portal to all federal, state and local government web resources and services.